Dillon, MT

5:45 AM MST on January 24, 2018 (GMT -0700)
Dillon

Weather History for KDLN - August, 2013

Change the Weather History Date:

Thursday, August 8, 2013

  Actual Average Record
Temperature  
Mean Temperature 68 °F 66 °F  
Max Temperature 88 °F 83 °F 94 °F (1991)
Min Temperature 47 °F 49 °F 36 °F (1939)
Degree Days  
Heating Degree Days 0    
Month to date heating degree days 2  
Since 1 June heating degree days 190  
Since 1 July heating degree days 2  
Cooling Degree Days 3    
Month to date cooling degree days 9  
Year to date cooling degree days 168  
Since 1 June cooling degree days 165  
Growing Degree Days 18 (Base 50)    
Moisture  
Dew Point 38 °F    
Average Humidity 36    
Maximum Humidity 62    
Minimum Humidity 9    
Precipitation  
Precipitation T in 0.03 in 0.50 in (1945)
Month to date precipitation T 0.25  
Year to date precipitation 5.42 7.50  
Snow  
Snow 0.00 in - - ()
Snow Depth 0.00 in    
Sea Level Pressure  
Sea Level Pressure 29.93 in    
Wind  
Wind Speed 7 mph (ENE)    
Max Wind Speed 21 mph    
Max Gust Speed 26 mph    
Visibility 10 miles    
Events      
T = Trace of Precipitation, MM = Missing Value Source: NWS Daily Summary

Daily Weather History Graph

Daily Weather History Graph

Search for Another Location

Airport or City:

Trip Planner

Search our weather history database for the weather conditions in past years. The results will help you decide how hot, cold, wet, or windy it might be!

Date:

Astronomy

Aug. 08, 2013 Rise Set
Actual Time 6:23 AM MDT 8:47 PM MDT
Civil Twilight 5:50 AM MDT 9:20 PM MDT
Nautical Twilight 5:09 AM MDT 10:01 PM MDT
Astronomical Twilight 4:22 AM MDT 10:47 PM MDT
Moon 8:22 AM MDT (8/8) 9:18 PM MDT (8/8)
Length of Visible Light 15h 29m
Length of Day
14h 24m
Waxing Crescent, 3% of the Moon is Illuminated
Aug 8
Waxing Crescent
Aug 14
First Quarter
Aug 20
Full
Aug 28
Last Quarter
Sep 5
New

Hourly Weather History & Observations

Time (MDT) Temp. Dew Point Humidity Pressure Visibility Wind Dir Wind Speed Gust Speed Precip Events Conditions
12:53 AM 62.1 °F 33.1 °F 34% 29.90 in 10.0 mi South 8.1 mph - N/A   Clear
1:53 AM 57.9 °F 33.1 °F 39% 29.90 in 10.0 mi South 4.6 mph - N/A   Clear
2:53 AM 55.0 °F 32.0 °F 42% 29.91 in 10.0 mi East 8.1 mph - N/A   Clear
3:53 AM 50.0 °F 34.0 °F 54% 29.92 in 10.0 mi Calm Calm - N/A   Clear
4:53 AM 52.0 °F 30.9 °F 45% 29.92 in 10.0 mi SSW 3.5 mph - N/A   Clear
5:53 AM 51.1 °F 32.0 °F 48% 29.93 in 10.0 mi SSW 3.5 mph - N/A   Clear
6:53 AM 52.0 °F 32.0 °F 47% 29.95 in 10.0 mi South 5.8 mph - N/A   Clear
7:53 AM 54.0 °F 36.0 °F 51% 29.97 in 10.0 mi SSW 6.9 mph - N/A   Clear
8:53 AM 57.0 °F 39.0 °F 51% 30.00 in 10.0 mi SW 5.8 mph - N/A   Clear
9:53 AM 64.0 °F 39.0 °F 40% 29.99 in 10.0 mi Calm Calm - N/A   Clear
10:53 AM 70.0 °F 42.1 °F 36% 29.97 in 10.0 mi NNE 8.1 mph - N/A   Clear
11:53 AM 73.0 °F 45.0 °F 37% 29.95 in 10.0 mi NNE 9.2 mph - N/A   Clear
12:53 PM 77.0 °F 42.1 °F 29% 29.92 in 10.0 mi NE 5.8 mph - N/A   Clear
1:53 PM 80.1 °F 36.0 °F 20% 29.90 in 10.0 mi NNE 8.1 mph - N/A   Clear
2:53 PM 82.9 °F 39.0 °F 21% 29.87 in 10.0 mi NNE 6.9 mph - N/A   Clear
3:53 PM 84.9 °F 34.0 °F 16% 29.87 in 10.0 mi NNE 9.2 mph - N/A   Clear
4:53 PM 87.1 °F 21.9 °F 9% 29.85 in 10.0 mi NNE 11.5 mph - N/A   Clear
5:53 PM 81.0 °F 42.1 °F 25% 29.87 in 10.0 mi NNE 16.1 mph - N/A   Clear
6:53 PM 75.9 °F 39.9 °F 27% 29.90 in 10.0 mi NE 9.2 mph - N/A   Scattered Clouds
7:53 PM 73.0 °F 43.0 °F 34% 29.91 in 10.0 mi NE 4.6 mph - N/A   Overcast
8:53 PM 70.0 °F 41.0 °F 35% 29.96 in 10.0 mi SE 9.2 mph 19.6 mph 0.00 in   Scattered Clouds
9:53 PM 64.9 °F 44.1 °F 47% 29.97 in 10.0 mi East 9.2 mph - N/A   Mostly Cloudy
10:53 PM 61.0 °F 46.0 °F 58% 29.99 in 10.0 mi Calm Calm - N/A   Clear
11:53 PM 59.0 °F 46.0 °F 62% 29.99 in 10.0 mi NNW 5.8 mph - N/A   Clear